Regional Weather Roundup
Issued by NWS

Home | Current Version | Previous Version | Graphics & Text | Print | Product List | Glossary On
Versions: 1 2 3 4 5 6 7 8 9 10 11 12 13 14 15 16 17 18 19 20 21 22 23 24 25 26 27 28 29 30 31 32 33 34 35 36 37 38 39 40 41 42 43 44 45 46 47 48 49 50
958
ASUS43 KLOT 061603
RWRIL

ILLINOIS REGIONAL WEATHER ROUNDUP
NATIONAL WEATHER SERVICE CHICAGO/ROMEOVILLE IL
1000 AM CST SAT FEB 06 2016

NOTE: "FAIR" INDICATES FEW OR NO CLOUDS BELOW 12,000 FEET WITH NO
SIGNIFICANT WEATHER AND/OR OBSTRUCTIONS TO VISIBILITY.

* THESE STATIONS ARE NOT UNDER NWS QUALITY CONTROL. THEY ALSO MAY NOT
  REPORT WEATHER SUCH AS PRECIPITATION OR FOG.

ILZ001-002-007-009-015-016-024-061700-
NORTHWEST ILLINOIS

CITY           SKY/WX    TMP DP  RH WIND       PRES   REMARKS
MOLINE         SUNNY     36  22  56 W7        30.26R WCI  30
STERLING*      SUNNY     36  27  69 SW8       30.23S WCI  29
$$

ILZ003-004-008-010-011-017-018-061700-
NORTH CENTRAL ILLINOIS

CITY           SKY/WX    TMP DP  RH WIND       PRES   REMARKS
ROCKFORD       CLOUDY    30  25  81 SW6       30.26S WCI  24
FREEPORT*      CLOUDY    29  26  86 SW8       30.25S WCI  21
DE KALB*       CLOUDY    31  27  83 S9        30.24F WCI  23
$$

ILZ005-006-012>014-019>023-061700-
NORTHEAST ILLINOIS

CITY           SKY/WX    TMP DP  RH WIND       PRES   REMARKS
CHICAGO-OHARE  MOSUNNY   32  23  69 SW12      30.25F WCI  23
CHICAGO-MIDWAY MOSUNNY   33  22  63 SW10      30.27F WCI  25
AURORA         MOSUNNY   33  26  75 SW8       30.26F HAZE    WCI  26
LANSING*       SUNNY     32  25  74 SW10      30.28F WCI  24
WAUKEGAN       PTSUNNY   32  23  69 SW9G18    30.22F WCI  24
DUPAGE AIRPORT SUNNY     32  24  72 SW12      30.25F WCI  23
WHEELING       SUNNY     32  22  66 SW8       30.25F WCI  25
NORTHERLY ISL    N/A     32  22  67 S8          N/A  WCI  25
$$

LMZ740>746-061700-
SOUTHERN LAKE MICHIGAN

STATION/POSITION SKY/WX   TEMP    WIND        PRES    VSBY  WAVE
                          AIR SEA DIR/SP/G                  HT/PER
                          (F)     (DEG/KT/KT) (MB)    (MI)  (FT/S)
HARRISON CRIB              30     200/ 13/ 15   N/A
BURNHAM HARBOR             33     260/  9/ 10   N/A
CALUMET HARBOR             29     210/ 10/ 14 1024.5F
BURNS HARBOR               29     210/ 10/ 15 1026.4R
MICHIGAN CITY              28     190/ 13/ 16   N/A
$$

ILZ025>027-034>036-040-047-049-050-058-095>099-061700-
WEST-CENTRAL ILLINOIS

CITY           SKY/WX    TMP DP  RH WIND       PRES   REMARKS
QUINCY         SUNNY     37  23  56 S10       30.27F WCI  30
MACOMB*        SUNNY     35  26  67 S6        30.29S WCI  30
$$

ILZ028>032-037-038-041>044-048-051>054-059>061-061700-
CENTRAL ILLINOIS

CITY           SKY/WX    TMP DP  RH WIND       PRES   REMARKS
BLOOMINGTON    SUNNY     34  30  85 SW12      30.30S WCI  25
DECATUR        SUNNY     37  27  67 S6        30.32F WCI  32
PEORIA         SUNNY     35  26  69 S7        30.29F WCI  29
LINCOLN*       SUNNY     35  30  82 S9        30.30F WCI  27
SPRINGFIELD    SUNNY     38  27  64 SE6       30.31F WCI  33
TAYLORVILLE    NOT AVBL
$$

ILZ033-039-045-046-055>057-062-063-061700-
EAST-CENTRAL ILLINOIS

CITY           SKY/WX    TMP DP  RH WIND       PRES   REMARKS
CHAMPAIGN      SUNNY     34  28  79 S9        30.32F WCI  27
MATTOON        SUNNY     36  26  67 S8        30.32S WCI  30
$$

ILZ079-100>102-061700-
SOUTHWEST ILLINOIS

CITY           SKY/WX    TMP DP  RH WIND       PRES   REMARKS
ALTON          SUNNY     36  27  69 SE6       30.33S WCI  31
CAHOKIA*       SUNNY     38  25  59 CALM      30.33F
SPARTA*        SUNNY     40  26  57 CALM      30.35R
$$

ILZ064>066-069>071-074>076-080>082-084>086-088>090-092>094-061700-
SOUTH-CENTRAL ILLINOIS

CITY           SKY/WX    TMP DP  RH WIND       PRES   REMARKS
CARBONDALE     SUNNY     43  27  53 SW3       30.35S
MARION         SUNNY     45  27  49 SW6       30.36R
MT. VERNON     SUNNY     39  27  60 S3        30.36R
CENTRALIA*     SUNNY     39  29  69 S5        30.34R
SALEM*         SUNNY     39  27  62 CALM      30.34S
$$

ILZ067-068-072-073-078-083-087-091-061700-
SOUTHEAST ILLINOIS

CITY           SKY/WX    TMP DP  RH WIND       PRES   REMARKS
LAWRENCEVILLE  SUNNY     36  28  73 S5        30.36S WCI  32
HARRISBURG*    SUNNY     39  30  68 CALM      30.36S
ROBINSON*      SUNNY     34  27  75 SE3       30.37F
CARMI*         SUNNY     39  29  67 CALM      30.36R
$$

ABBREVIATIONS USED IN REMARKS
   TC - TEMPERATURE IN CELSIUS
  WCI - WIND CHILL INDEX
   HX - HEAT INDEX
  VSB - VISIBILITY
$$





USA.gov is the U.S. government's official web portal to all federal, state and local government web resources and services.